INMARSAT 6-F1

Last updated on Tue Sep 22 2026 00:03:15 GMT+0000 (Coordinated Universal Time)

1 50319U 21128A 26264.00675411 .00000000 00000+0 00000+0 0 9994 2 50319 0.0243 148.0032 0000215 343.6788 314.4286 1.00270493 17219
UTC large
Height (km)
Speed (km/s)
/
Latitude / Longitude
Inclination (degrees)
Orbital Period (minutes)
Azimuth
Elevation
Range (km)
Doppler Factor

Next 0 passes for location: London (51.5072 / 0.1276)

No passes found over London.
INMARSAT 6-F1